Champaign, IL

8:27 AM CDT on July 18, 2019 (GMT -0500)
Univ Of Illinois-Willard

Weather History for KCMI - May, 2019

Change the Weather History Date:

Monday, May 27, 2019

  Actual Average Record
Temperature  
Mean Temperature 74 °F 67 °F  
Max Temperature 86 °F 79 °F 95 °F (2012)
Min Temperature 61 °F 55 °F 45 °F (2001)
Degree Days  
Heating Degree Days 0 2  
Month to date heating degree days 136 133  
Since 1 July heating degree days 5899 5797  
Cooling Degree Days 9 4  
Month to date cooling degree days 81 64  
Year to date cooling degree days 84 75  
Growing Degree Days 22 (Base 50)    
Moisture  
Dew Point 64 °F    
Average Humidity 77    
Maximum Humidity 100    
Minimum Humidity 54    
Precipitation  
Precipitation 0.00 in 0.13 in 2.35 in (2000)
Month to date precipitation 4.65 3.98  
Year to date precipitation 16.79 14.59  
Sea Level Pressure  
Sea Level Pressure 29.92 in    
Wind  
Wind Speed 12 mph (South)    
Max Wind Speed 29 mph    
Max Gust Speed 38 mph    
Visibility 8 miles    
Events      
T = Trace of Precipitation, MM = Missing Value Source: NWS Daily Summary

Daily Weather History Graph

Daily Weather History Graph

Search for Another Location

Airport or City:

Astronomy

May. 27, 2019 Rise Set
Actual Time 5:28 AM CDT 8:12 PM CDT
Civil Twilight 4:57 AM CDT 8:43 PM CDT
Nautical Twilight 4:17 AM CDT 9:23 PM CDT
Astronomical Twilight 3:32 AM CDT 10:09 PM CDT
Moon 2:13 AM CDT (5/27) 1:24 PM CDT (5/27)
Length of Visible Light 15h 46m
Length of Day
14h 43m
Last Quarter, 40% of the Moon is Illuminated
May 27
Last Quarter
Jun 3
New
Jun 10
First Quarter
Jun 17
Full
Jun 25
Last Quarter

Hourly Weather History & Observations

Time (CDT) Temp. Heat Index Dew Point Humidity Pressure Visibility Wind Dir Wind Speed Gust Speed Precip Events Conditions
12:53 AM 64.9 °F - 63.0 °F 93% 30.06 in 10.0 mi Calm Calm - N/A   Clear
1:53 AM 64.0 °F - 63.0 °F 96% 30.04 in 7.0 mi Calm Calm - N/A   Clear
2:38 AM 63.0 °F - 62.1 °F 97% 30.04 in 2.0 mi Calm Calm - N/A   Clear
2:46 AM 63.0 °F - 62.1 °F 97% 30.04 in 0.8 mi Calm Calm - N/A   Clear
2:53 AM 63.0 °F - 62.1 °F 97% 30.03 in 0.8 mi Calm Calm - N/A   Clear
2:57 AM 63.0 °F - 62.1 °F 97% 30.04 in 2.0 mi ENE 3.5 mph - N/A   Clear
3:04 AM 62.1 °F - 61.0 °F 96% 30.04 in 3.0 mi Calm Calm - N/A   Clear
3:33 AM 62.1 °F - 61.0 °F 96% 30.03 in 1.8 mi East 4.6 mph - N/A   Clear
3:45 AM 62.1 °F - 60.1 °F 93% 30.03 in 3.0 mi East 5.8 mph - N/A   Clear
3:53 AM 61.0 °F - 60.1 °F 97% 30.03 in 6.0 mi East 5.8 mph - N/A   Clear
4:53 AM 62.1 °F - 61.0 °F 96% 30.01 in 6.0 mi East 5.8 mph - N/A   Clear
5:53 AM 62.1 °F - 61.0 °F 96% 30.01 in 5.0 mi SE 5.8 mph - N/A   Clear
6:53 AM 64.9 °F - 63.0 °F 93% 30.02 in 9.0 mi ESE 6.9 mph - N/A   Clear
7:53 AM 70.0 °F - 64.9 °F 84% 30.03 in 10.0 mi SE 10.4 mph - N/A   Clear
8:53 AM 73.0 °F - 66.0 °F 79% 29.99 in 10.0 mi SE 15.0 mph - N/A   Clear
9:53 AM 75.9 °F - 66.0 °F 71% 29.97 in 10.0 mi South 15.0 mph - N/A   Partly Cloudy
10:53 AM 79.0 °F - 66.9 °F 66% 29.93 in 10.0 mi South 13.8 mph - N/A   Scattered Clouds
11:53 AM 79.0 °F - 66.9 °F 66% 29.92 in 10.0 mi South 17.3 mph 24.2 mph N/A   Mostly Cloudy
12:53 PM 82.9 °F 86.5 °F 69.1 °F 63% 29.88 in 10.0 mi South 17.3 mph 27.6 mph N/A   Scattered Clouds
1:53 PM 82.9 °F 87.0 °F 70.0 °F 65% 29.85 in 10.0 mi SSW 17.3 mph 27.6 mph N/A   Mostly Cloudy
2:53 PM 84.0 °F 86.5 °F 66.9 °F 56% 29.79 in 10.0 mi SSW 21.9 mph 32.2 mph N/A   Partly Cloudy
3:53 PM 84.0 °F 86.3 °F 66.0 °F 55% 29.77 in 10.0 mi SSW 18.4 mph 34.5 mph N/A   Mostly Cloudy
4:53 PM 82.9 °F 85.4 °F 66.9 °F 58% 29.75 in 10.0 mi SSW 21.9 mph 33.4 mph N/A   Mostly Cloudy
5:53 PM 82.9 °F 84.4 °F 64.0 °F 53% 29.74 in 10.0 mi SW 20.7 mph 34.5 mph N/A   Partly Cloudy
6:53 PM 80.1 °F 81.5 °F 63.0 °F 56% 29.75 in 10.0 mi WSW 15.0 mph - N/A   Partly Cloudy
7:53 PM 77.0 °F - 63.0 °F 62% 29.75 in 10.0 mi WSW 8.1 mph - N/A   Mostly Cloudy
8:53 PM 73.0 °F - 63.0 °F 71% 29.74 in 10.0 mi SSW 6.9 mph - N/A   Mostly Cloudy
9:53 PM 73.0 °F - 66.0 °F 79% 29.74 in 10.0 mi South 6.9 mph - N/A   Mostly Cloudy
10:53 PM 73.0 °F - 66.9 °F 81% 29.74 in 10.0 mi SSW 8.1 mph - N/A   Mostly Cloudy
11:53 PM 73.0 °F - 66.0 °F 79% 29.73 in 10.0 mi SSW 11.5 mph - N/A   Clear